[[{"header":{"parameterUnit":"m.s-1","parameterCategory":2,"la1":30.2992,"la2":30.254,"lo1":-89.0895,"lo2":-89.0443,"dy":0.0025,"dx":0.0025,"nx":19,"ny":19,"refTime":"2026-05-01T03:00:00:Z","depth":"0","parameterNumber":2,"parameterNumberName":"U-component_of_CURRENTS"},"data":[0,0,0,-0.2477,-0.2478,-0.2504,-0.2504,-0.253,-0.2531,0,0,0,0,0,0,0,0,0,0,0,-0.2458,-0.2458,-0.2477,-0.2478,-0.2504,-0.2504,-0.253,-0.2531,0,0,0,0,0,0,0,0,0,0,0,-0.2458,-0.2458,-0.2458,-0.2478,-0.2504,-0.2504,-0.253,-0.2511,0,0,0,0,0,0,0,0,0,0,-0.2486,-0.2465,-0.2458,-0.2458,-0.2478,-0.2504,-0.2504,-0.251,-0.2512,-0.2519,0,-0.252,0,-0.2534,-0.2533,-0.2533,0,0,0,-0.2472,-0.2463,-0.248,-0.2458,-0.2479,-0.2504,-0.249,-0.2511,-0.2513,-0.2522,-0.2521,-0.2522,-0.2534,-0.2533,-0.2533,-0.2575,-0.2575,0,0,-0.247,-0.2454,-0.2478,-0.2481,-0.2482,-0.249,-0.2491,-0.2513,-0.2508,-0.2521,-0.2523,-0.2534,-0.2533,-0.2534,-0.2575,-0.2575,0,0,0,-0.247,-0.2453,-0.2469,-0.248,-0.2489,-0.249,-0.2492,-0.2506,-0.2515,-0.2523,-0.2535,-0.2533,-0.2534,-0.2575,-0.2575,-0.2599,0,0,0,-0.2469,-0.2454,-0.2469,-0.2458,-0.2489,-0.2498,-0.2486,-0.2513,-0.2516,-0.2535,-0.2533,-0.2534,-0.2574,-0.2575,-0.2598,-0.2617,0,0,0,-0.2458,-0.2453,-0.2457,-0.2458,-0.2474,-0.2498,-0.2507,-0.2513,-0.2523,-0.2533,-0.2534,-0.2574,-0.2575,-0.2597,-0.2615,-0.2644,0,0,0,-0.2439,-0.2449,-0.2456,-0.2476,-0.2474,-0.2516,-0.2507,-0.2529,-0.2539,-0.2534,-0.2575,-0.2575,-0.2597,-0.2614,-0.2642,-0.2652,-0.266,0,0,-0.2447,-0.2449,-0.2466,-0.2474,-0.2515,-0.2512,-0.2553,-0.2556,-0.2548,-0.2565,-0.2566,-0.2598,-0.2615,-0.2644,-0.2681,-0.2688,0,0,0,-0.2466,-0.2472,-0.2488,-0.2511,-0.2543,-0.257,-0.2576,-0.258,-0.2588,-0.2558,-0.2602,-0.2612,-0.2629,-0.2632,-0.2638,-0.2639,-0.2577,-0.2577,-0.2577,-0.2432,-0.2469,-0.2497,-0.2541,-0.2571,-0.2609,-0.2629,-0.2633,-0.2618,-0.2623,-0.2634,-0.2676,-0.2679,-0.2683,-0.2685,-0.2632,-0.2632,-0.2632,-0.2632,-0.2431,-0.244,-0.2499,-0.2537,-0.2586,-0.2619,-0.2672,-0.267,-0.2695,-0.2666,-0.2681,-0.266,-0.2691,-0.269,-0.2633,-0.2633,-0.2633,-0.2633,-0.2633,-0.2387,-0.2397,-0.2436,-0.2494,-0.2553,-0.2614,-0.268,-0.2708,-0.2718,-0.2737,-0.2737,-0.2737,-0.2735,-0.2739,-0.2739,-0.274,-0.274,-0.274,-0.274,-0.2308,-0.2356,-0.237,-0.2446,-0.2482,-0.256,-0.2674,-0.2724,-0.2774,-0.2774,-0.2774,-0.2753,-0.2709,-0.2704,-0.2743,-0.2743,-0.2742,-0.2742,-0.2742,-0.2218,-0.225,-0.2268,-0.2301,-0.2401,-0.2467,-0.262,-0.2752,-0.2811,-0.2833,-0.2824,-0.2797,-0.2794,-0.2789,-0.2786,-0.2845,-0.2845,-0.2845,-0.2845,-0.2133,-0.216,-0.2158,-0.2193,-0.2277,-0.2408,-0.2539,-0.2699,-0.2813,-0.2838,-0.2868,-0.2839,-0.2835,-0.2832,-0.2826,-0.2823,-0.289,-0.289,-0.289,-0.2047,-0.2074,-0.2031,-0.2099,-0.2198,-0.2336,-0.2454,-0.2702,-0.2865,-0.2891,-0.2871,-0.2869,-0.2824,-0.2817,-0.2807,-0.2799,-0.2791,0,0]},{"header":{"parameterUnit":"m.s-1","parameterCategory":2,"la1":30.2992,"la2":30.254,"lo1":-89.0895,"lo2":-89.0443,"dy":0.0025,"dx":0.0025,"nx":19,"ny":19,"refTime":"2026-05-01T03:00:00:Z","depth":"0","parameterNumber":3,"parameterNumberName":"V-component_of_CURRENTS"},"data":[0,0,0,-0.0559,-0.0558,-0.0485,-0.0484,-0.0397,-0.0396,0,0,0,0,0,0,0,0,0,0,0,-0.0586,-0.0586,-0.056,-0.0558,-0.0485,-0.0484,-0.0397,-0.0396,0,0,0,0,0,0,0,0,0,0,0,-0.0587,-0.0586,-0.0586,-0.0558,-0.0485,-0.0484,-0.0397,-0.0449,0,0,0,0,0,0,0,0,0,0,-0.0518,-0.0551,-0.0586,-0.0586,-0.0558,-0.0485,-0.0484,-0.0451,-0.0445,-0.0436,0,-0.0432,0,-0.0416,-0.0392,-0.0392,0,0,0,-0.0547,-0.0556,-0.0532,-0.0586,-0.0557,-0.0485,-0.0515,-0.0448,-0.0441,-0.0429,-0.043,-0.0427,-0.0415,-0.0391,-0.0391,-0.0356,-0.0356,0,0,-0.0551,-0.0574,-0.0537,-0.0529,-0.0547,-0.0517,-0.0513,-0.0444,-0.0444,-0.043,-0.0425,-0.0413,-0.0391,-0.039,-0.0355,-0.0356,0,0,0,-0.057,-0.0577,-0.0554,-0.0533,-0.0521,-0.0515,-0.051,-0.0447,-0.0439,-0.0424,-0.0412,-0.039,-0.039,-0.0355,-0.0355,-0.0417,0,0,0,-0.0572,-0.0588,-0.0556,-0.0569,-0.0523,-0.0484,-0.0515,-0.0443,-0.0435,-0.0413,-0.039,-0.0389,-0.0355,-0.0355,-0.0415,-0.0456,0,0,0,-0.0588,-0.059,-0.0583,-0.057,-0.0543,-0.0484,-0.0472,-0.0441,-0.0429,-0.0391,-0.0389,-0.0355,-0.0355,-0.0413,-0.0452,-0.0441,0,0,0,-0.061,-0.0626,-0.0584,-0.0601,-0.0544,-0.0522,-0.0472,-0.0449,-0.0424,-0.039,-0.0355,-0.0355,-0.0413,-0.045,-0.044,-0.0434,-0.0442,0,0,-0.0646,-0.0631,-0.0642,-0.0603,-0.0611,-0.0531,-0.0526,-0.047,-0.0423,-0.0376,-0.0375,-0.0416,-0.0452,-0.0441,-0.0453,-0.046,0,0,0,-0.0665,-0.0676,-0.067,-0.0663,-0.0625,-0.059,-0.0522,-0.0485,-0.0436,-0.041,-0.0405,-0.0426,-0.0417,-0.041,-0.0415,-0.0228,-0.0357,-0.0357,-0.0357,-0.0744,-0.0726,-0.0752,-0.0725,-0.0703,-0.0627,-0.0591,-0.0525,-0.0474,-0.046,-0.0468,-0.0493,-0.0487,-0.0491,-0.0299,-0.045,-0.045,-0.045,-0.045,-0.0829,-0.0852,-0.0821,-0.084,-0.0785,-0.0763,-0.0661,-0.061,-0.0544,-0.0508,-0.0495,-0.0466,-0.05,-0.0293,-0.0454,-0.0453,-0.0453,-0.0453,-0.0452,-0.0896,-0.0907,-0.0911,-0.0935,-0.0921,-0.085,-0.0828,-0.0727,-0.0617,-0.0602,-0.055,-0.0549,-0.0371,-0.0581,-0.0582,-0.0582,-0.0582,-0.0582,-0.0582,-0.0968,-0.0972,-0.1026,-0.1034,-0.1051,-0.1034,-0.0921,-0.0856,-0.0714,-0.0623,-0.0621,-0.0355,-0.0532,-0.0533,-0.0584,-0.0584,-0.0584,-0.0583,-0.0583,-0.1059,-0.1057,-0.1152,-0.1188,-0.123,-0.1262,-0.1127,-0.096,-0.0842,-0.0768,-0.0394,-0.061,-0.0584,-0.0578,-0.0578,-0.0639,-0.0639,-0.0639,-0.0639,-0.1119,-0.1126,-0.1268,-0.1356,-0.141,-0.1377,-0.1334,-0.1081,-0.0645,-0.0404,-0.031,-0.0255,-0.0261,-0.021,-0.0213,-0.0203,-0.0167,-0.0166,-0.0165,-0.1183,-0.1226,-0.1343,-0.1432,-0.1502,-0.1507,-0.1461,-0.1129,-0.0443,-0.0125,-0.0048,-0.0068,0.0035,0.001,0.0107,0.0088,0.0109,0,0]}],[{"header":{"parameterUnit":"m.s-1","parameterCategory":2,"la1":30.2992,"la2":30.254,"lo1":-89.0895,"lo2":-89.0443,"dy":0.0025,"dx":0.0025,"nx":19,"ny":19,"refTime":"2026-05-01T03:00:00:Z","depth":"2","parameterNumber":2,"parameterNumberName":"U-component_of_CURRENTS"},"data":[0,0,0,-0.2432,-0.2433,-0.2462,-0.2462,-0.249,-0.249,0,0,0,0,0,0,0,0,0,0,0,-0.2412,-0.2412,-0.2432,-0.2433,-0.2462,-0.2462,-0.249,-0.249,0,0,0,0,0,0,0,0,0,0,0,-0.2412,-0.2412,-0.2412,-0.2433,-0.2462,-0.2462,-0.249,-0.2469,0,0,0,0,0,0,0,0,0,0,-0.2441,-0.242,-0.2412,-0.2412,-0.2433,-0.2462,-0.2462,-0.2468,-0.247,-0.2476,0,-0.2478,0,-0.2492,-0.2492,-0.2492,0,0,0,-0.2427,-0.2418,-0.2435,-0.2412,-0.2433,-0.2462,-0.2447,-0.2469,-0.2472,-0.2479,-0.2479,-0.248,-0.2492,-0.2493,-0.2493,-0.2535,-0.2535,0,0,-0.2425,-0.2409,-0.2433,-0.2436,-0.2438,-0.2446,-0.2448,-0.2471,-0.2466,-0.2479,-0.2481,-0.2493,-0.2493,-0.2493,-0.2535,-0.2535,0,0,0,-0.2425,-0.2408,-0.2425,-0.2435,-0.2445,-0.2447,-0.2449,-0.2465,-0.2473,-0.2481,-0.2493,-0.2493,-0.2493,-0.2535,-0.2535,-0.2559,0,0,0,-0.2423,-0.2409,-0.2424,-0.2414,-0.2445,-0.2456,-0.2443,-0.2471,-0.2475,-0.2493,-0.2493,-0.2494,-0.2534,-0.2535,-0.2558,-0.2577,0,0,0,-0.2411,-0.2407,-0.2412,-0.2413,-0.2431,-0.2456,-0.2465,-0.2472,-0.2482,-0.2493,-0.2494,-0.2534,-0.2535,-0.2557,-0.2575,-0.2603,0,0,0,-0.2393,-0.2403,-0.2411,-0.2431,-0.243,-0.2473,-0.2465,-0.2489,-0.2499,-0.2493,-0.2534,-0.2535,-0.2557,-0.2573,-0.2601,-0.259,-0.2596,0,0,-0.24,-0.2403,-0.2419,-0.2428,-0.247,-0.2469,-0.251,-0.2515,-0.2508,-0.2525,-0.2526,-0.2558,-0.2574,-0.2602,-0.262,-0.2625,0,0,0,-0.242,-0.2426,-0.2442,-0.2465,-0.2497,-0.2526,-0.2534,-0.2538,-0.2548,-0.2518,-0.2562,-0.2572,-0.2588,-0.2578,-0.2583,-0.2537,-0.2537,-0.2537,-0.2537,-0.2386,-0.2423,-0.2451,-0.2495,-0.2525,-0.2565,-0.2586,-0.2591,-0.2577,-0.2583,-0.2594,-0.2636,-0.2625,-0.2628,-0.2592,-0.2592,-0.2592,-0.2592,-0.2592,-0.2385,-0.2394,-0.2453,-0.2491,-0.254,-0.2574,-0.2628,-0.2628,-0.2654,-0.2626,-0.264,-0.2607,-0.2634,-0.2594,-0.2594,-0.2594,-0.2593,-0.2593,-0.2593,-0.2343,-0.2352,-0.2391,-0.2449,-0.2509,-0.257,-0.2636,-0.2665,-0.2677,-0.2696,-0.2682,-0.2681,-0.2656,-0.2698,-0.2699,-0.2699,-0.2699,-0.2699,-0.2699,-0.2265,-0.2312,-0.2326,-0.2402,-0.2438,-0.2516,-0.2631,-0.2679,-0.2721,-0.2717,-0.2717,-0.2672,-0.2668,-0.2663,-0.2702,-0.2702,-0.2701,-0.2701,-0.2701,-0.2176,-0.2208,-0.2226,-0.2259,-0.2357,-0.2398,-0.2566,-0.2688,-0.2751,-0.2766,-0.2732,-0.273,-0.2724,-0.272,-0.2716,-0.2767,-0.2767,-0.2767,-0.2767,-0.2093,-0.2119,-0.2117,-0.2151,-0.2232,-0.233,-0.2388,-0.2428,-0.2534,-0.251,-0.252,-0.2465,-0.247,-0.2446,-0.2448,-0.2436,-0.2415,-0.2414,-0.2412,-0.2008,-0.2035,-0.1992,-0.2058,-0.2153,-0.2234,-0.2201,-0.2087,-0.2145,-0.2387,-0.2341,-0.2766,-0.2714,-0.2711,-0.2695,-0.269,-0.268,0,0]},{"header":{"parameterUnit":"m.s-1","parameterCategory":2,"la1":30.2992,"la2":30.254,"lo1":-89.0895,"lo2":-89.0443,"dy":0.0025,"dx":0.0025,"nx":19,"ny":19,"refTime":"2026-05-01T03:00:00:Z","depth":"2","parameterNumber":3,"parameterNumberName":"V-component_of_CURRENTS"},"data":[0,0,0,-0.0491,-0.049,-0.0419,-0.0418,-0.0331,-0.033,0,0,0,0,0,0,0,0,0,0,0,-0.0517,-0.0516,-0.0491,-0.0489,-0.0419,-0.0418,-0.0331,-0.033,0,0,0,0,0,0,0,0,0,0,0,-0.0517,-0.0517,-0.0516,-0.0489,-0.0419,-0.0418,-0.0331,-0.0381,0,0,0,0,0,0,0,0,0,0,-0.0448,-0.0482,-0.0517,-0.0516,-0.0489,-0.0419,-0.0418,-0.0383,-0.0378,-0.0367,0,-0.0364,0,-0.0349,-0.0325,-0.0325,0,0,0,-0.0478,-0.0486,-0.0463,-0.0516,-0.0488,-0.0419,-0.0448,-0.038,-0.0374,-0.036,-0.0362,-0.0359,-0.0348,-0.0325,-0.0324,-0.0288,-0.0288,0,0,-0.0482,-0.0504,-0.0467,-0.046,-0.048,-0.045,-0.0446,-0.0376,-0.0377,-0.0362,-0.0357,-0.0346,-0.0324,-0.0324,-0.0288,-0.0288,0,0,0,-0.0501,-0.0507,-0.0486,-0.0464,-0.0453,-0.0448,-0.0443,-0.038,-0.0372,-0.0356,-0.0345,-0.0324,-0.0323,-0.0288,-0.0288,-0.035,0,0,0,-0.0503,-0.0519,-0.0488,-0.05,-0.0454,-0.0417,-0.0448,-0.0376,-0.0368,-0.0345,-0.0324,-0.0322,-0.0288,-0.0288,-0.0348,-0.0389,0,0,0,-0.0518,-0.052,-0.0514,-0.0501,-0.0475,-0.0417,-0.0405,-0.0374,-0.0362,-0.0325,-0.0322,-0.0288,-0.0288,-0.0347,-0.0385,-0.0374,0,0,0,-0.0539,-0.0556,-0.0515,-0.0532,-0.0476,-0.0454,-0.0405,-0.0383,-0.0357,-0.0324,-0.0288,-0.0288,-0.0346,-0.0383,-0.0373,-0.0363,-0.037,0,0,-0.0575,-0.056,-0.0572,-0.0534,-0.0541,-0.0463,-0.0458,-0.0402,-0.0356,-0.0308,-0.0307,-0.0349,-0.0385,-0.0374,-0.0382,-0.0389,0,0,0,-0.0594,-0.0605,-0.0599,-0.0593,-0.0555,-0.0521,-0.0455,-0.0417,-0.0369,-0.0343,-0.0338,-0.0359,-0.035,-0.034,-0.0345,-0.029,-0.029,-0.0289,-0.0289,-0.0672,-0.0654,-0.068,-0.0653,-0.0631,-0.0558,-0.0522,-0.0457,-0.0406,-0.0393,-0.0401,-0.0427,-0.0418,-0.0422,-0.0383,-0.0383,-0.0384,-0.0384,-0.0384,-0.0756,-0.0779,-0.0748,-0.0768,-0.0713,-0.0692,-0.0592,-0.0542,-0.0477,-0.0441,-0.0428,-0.0397,-0.0431,-0.0389,-0.0388,-0.0387,-0.0387,-0.0386,-0.0386,-0.0823,-0.0833,-0.0838,-0.0862,-0.0849,-0.0779,-0.0757,-0.0658,-0.055,-0.0536,-0.0482,-0.048,-0.046,-0.0516,-0.0516,-0.0516,-0.0516,-0.0516,-0.0516,-0.0895,-0.0899,-0.0953,-0.0961,-0.0979,-0.0962,-0.0851,-0.0787,-0.0645,-0.0554,-0.0553,-0.0471,-0.0466,-0.0467,-0.0519,-0.0518,-0.0518,-0.0518,-0.0517,-0.0986,-0.0984,-0.1078,-0.1115,-0.1156,-0.1172,-0.1052,-0.0886,-0.0773,-0.0698,-0.0541,-0.0539,-0.0512,-0.0507,-0.0507,-0.0566,-0.0566,-0.0566,-0.0566,-0.1045,-0.1053,-0.1193,-0.1281,-0.1333,-0.1279,-0.1208,-0.0936,-0.0682,-0.0527,-0.0528,-0.0502,-0.0501,-0.047,-0.0466,-0.0463,-0.0512,-0.0511,-0.0511,-0.111,-0.1152,-0.1269,-0.1356,-0.1424,-0.1391,-0.1282,-0.0905,-0.0527,-0.0507,-0.0501,-0.0566,-0.053,-0.0528,-0.048,-0.0473,-0.0469,0,0]}],[{"header":{"parameterUnit":"m.s-1","parameterCategory":2,"la1":30.2992,"la2":30.254,"lo1":-89.0895,"lo2":-89.0443,"dy":0.0025,"dx":0.0025,"nx":19,"ny":19,"refTime":"2026-05-01T03:00:00:Z","depth":"4","parameterNumber":2,"parameterNumberName":"U-component_of_CURRENTS"},"data":[0,0,0,-0.1647,-0.165,-0.1798,-0.1798,-0.1912,-0.1913,0,0,0,0,0,0,0,0,0,0,0,-0.1597,-0.1598,-0.1646,-0.165,-0.1798,-0.1798,-0.1912,-0.1913,0,0,0,0,0,0,0,0,0,0,0,-0.1597,-0.1598,-0.16,-0.1651,-0.1798,-0.1799,-0.1912,-0.182,0,0,0,0,0,0,0,0,0,0,-0.1686,-0.1652,-0.1598,-0.16,-0.1651,-0.1797,-0.1799,-0.1816,-0.1825,-0.1822,0,-0.185,0,-0.188,-0.1918,-0.1918,0,0,0,-0.1654,-0.1645,-0.1681,-0.16,-0.1653,-0.1797,-0.1732,-0.1822,-0.1832,-0.1833,-0.1852,-0.1856,-0.1882,-0.1919,-0.1919,-0.2014,-0.2015,0,0,-0.1646,-0.1627,-0.1674,-0.1688,-0.1696,-0.1728,-0.1737,-0.1829,-0.1842,-0.1852,-0.186,-0.1884,-0.1919,-0.192,-0.2014,-0.2014,0,0,0,-0.162,-0.1621,-0.1657,-0.1683,-0.1714,-0.1732,-0.1742,-0.1838,-0.185,-0.1861,-0.1885,-0.192,-0.1921,-0.2013,-0.2014,-0.2041,0,0,0,-0.1615,-0.1605,-0.1653,-0.1643,-0.1713,-0.1789,-0.1749,-0.1844,-0.1855,-0.1884,-0.192,-0.1921,-0.2013,-0.2014,-0.204,-0.2052,0,0,0,-0.159,-0.1602,-0.162,-0.1642,-0.1704,-0.1788,-0.1807,-0.1847,-0.1869,-0.1918,-0.1922,-0.2012,-0.2013,-0.2038,-0.205,-0.2072,0,0,0,-0.1562,-0.1591,-0.162,-0.1667,-0.1702,-0.1793,-0.1806,-0.1885,-0.1931,-0.192,-0.2013,-0.2014,-0.2037,-0.2048,-0.207,-0.1843,0,0,0,-0.1577,-0.1592,-0.1621,-0.165,-0.1729,-0.1773,-0.186,-0.1926,-0.1941,-0.1976,-0.198,-0.204,-0.205,-0.2071,-0.1906,0,0,0,0,-0.1612,-0.1631,-0.1662,-0.1719,-0.1787,-0.1862,-0.1928,-0.1955,-0.2015,-0.1973,-0.2053,-0.2059,-0.2071,-0.1935,-0.2019,-0.2019,-0.2019,-0.2019,-0.2018,-0.1588,-0.1638,-0.1692,-0.1764,-0.1829,-0.193,-0.1987,-0.2035,-0.2043,-0.2075,-0.2091,-0.214,-0.1997,-0.2101,-0.2102,-0.2102,-0.2102,-0.2102,-0.2102,-0.1593,-0.1614,-0.1707,-0.1778,-0.1869,-0.1951,-0.2049,-0.2078,-0.2141,-0.2131,-0.2142,-0.1985,-0.2105,-0.2105,-0.2104,-0.2104,-0.2103,-0.2103,-0.2103,-0.1546,-0.1562,-0.1637,-0.1745,-0.1859,-0.1969,-0.2047,-0.2124,-0.2166,-0.2192,-0.2047,-0.2163,-0.2149,-0.2201,-0.2201,-0.2202,-0.2202,-0.2202,-0.2202,-0.1449,-0.1526,-0.1579,-0.1709,-0.1783,-0.1895,-0.2053,-0.2091,-0.2161,-0.2059,-0.2206,-0.2173,-0.217,-0.2155,-0.2205,-0.2204,-0.2204,-0.2204,-0.2203,-0.1353,-0.1408,-0.1469,-0.1541,-0.1695,-0.1761,-0.1949,-0.198,-0.2003,-0.1957,-0.1982,-0.1992,-0.1961,-0.1963,-0.194,-0.1927,-0.1924,-0.1921,0,-0.127,-0.1306,-0.1367,-0.1436,-0.151,-0.1663,-0.1664,-0.1749,-0.1805,-0.1742,-0.1987,-0.2013,-0.2019,-0.1983,-0.1981,-0.1951,0,0,0,-0.1198,-0.1233,-0.1234,-0.1331,-0.1407,-0.1495,-0.165,-0.1616,-0.1805,-0.1769,-0.1853,-0.1871,-0.2093,-0.2212,-0.219,-0.2186,-0.2161,0,0]},{"header":{"parameterUnit":"m.s-1","parameterCategory":2,"la1":30.2992,"la2":30.254,"lo1":-89.0895,"lo2":-89.0443,"dy":0.0025,"dx":0.0025,"nx":19,"ny":19,"refTime":"2026-05-01T03:00:00:Z","depth":"4","parameterNumber":3,"parameterNumberName":"V-component_of_CURRENTS"},"data":[0,0,0,-0.0167,-0.0167,-0.0141,-0.0141,-0.0089,-0.0089,0,0,0,0,0,0,0,0,0,0,0,-0.0176,-0.0176,-0.0167,-0.0167,-0.0141,-0.0141,-0.0089,-0.0089,0,0,0,0,0,0,0,0,0,0,0,-0.0176,-0.0176,-0.0176,-0.0167,-0.0141,-0.0141,-0.0089,-0.0111,0,0,0,0,0,0,0,0,0,0,-0.0137,-0.0156,-0.0176,-0.0176,-0.0167,-0.0141,-0.0141,-0.0112,-0.011,-0.0098,0,-0.0101,0,-0.0097,-0.0086,-0.0086,0,0,0,-0.0158,-0.0158,-0.0149,-0.0176,-0.0166,-0.0141,-0.015,-0.0111,-0.0108,-0.0095,-0.0101,-0.0099,-0.0096,-0.0086,-0.0085,-0.0074,-0.0074,0,0,-0.0159,-0.0171,-0.0151,-0.0148,-0.0169,-0.0151,-0.0149,-0.0109,-0.0111,-0.0101,-0.0098,-0.0096,-0.0085,-0.0085,-0.0074,-0.0074,0,0,0,-0.0169,-0.0172,-0.0164,-0.015,-0.0149,-0.0151,-0.0149,-0.0113,-0.011,-0.0097,-0.0095,-0.0085,-0.0084,-0.0073,-0.0074,-0.0131,0,0,0,-0.017,-0.0178,-0.0165,-0.0171,-0.015,-0.0134,-0.0153,-0.0113,-0.0108,-0.0095,-0.0085,-0.0084,-0.0073,-0.0074,-0.0129,-0.0164,0,0,0,-0.0176,-0.0179,-0.0178,-0.0172,-0.0165,-0.0135,-0.0129,-0.0111,-0.0107,-0.0086,-0.0084,-0.0073,-0.0074,-0.0128,-0.0161,-0.0157,0,0,0,-0.0184,-0.0201,-0.0179,-0.02,-0.0165,-0.0168,-0.0129,-0.0128,-0.0115,-0.0085,-0.0073,-0.0074,-0.0127,-0.0158,-0.0155,-0.0176,0,0,0,-0.0212,-0.0204,-0.0219,-0.0199,-0.0222,-0.017,-0.0184,-0.0151,-0.0116,-0.0083,-0.0082,-0.013,-0.016,-0.0156,-0.0205,0,0,0,0,-0.0232,-0.0245,-0.0248,-0.0257,-0.0243,-0.0234,-0.0194,-0.017,-0.0143,-0.0112,-0.0124,-0.0142,-0.0137,-0.0144,-0.0076,-0.0076,-0.0076,-0.0076,-0.0076,-0.0279,-0.028,-0.0313,-0.0313,-0.031,-0.0276,-0.0261,-0.0218,-0.0179,-0.0175,-0.0184,-0.0217,-0.0227,-0.0173,-0.0173,-0.0173,-0.0173,-0.0174,-0.0174,-0.0341,-0.0364,-0.0369,-0.0402,-0.0384,-0.0386,-0.0329,-0.0296,-0.0257,-0.0226,-0.0218,-0.02,-0.0179,-0.0178,-0.0177,-0.0177,-0.0176,-0.0176,-0.0176,-0.0377,-0.0389,-0.0416,-0.0468,-0.049,-0.0462,-0.0465,-0.0403,-0.0323,-0.0317,-0.0292,-0.0247,-0.0246,-0.0303,-0.0303,-0.0303,-0.0303,-0.0304,-0.0304,-0.04,-0.0427,-0.0491,-0.0537,-0.0577,-0.0595,-0.0545,-0.0503,-0.0413,-0.0365,-0.0331,-0.026,-0.0256,-0.0252,-0.0306,-0.0306,-0.0305,-0.0305,-0.0305,-0.0437,-0.0456,-0.0554,-0.0611,-0.0702,-0.0705,-0.0664,-0.0553,-0.0505,-0.0436,-0.0371,-0.0367,-0.0342,-0.0336,-0.0334,-0.0414,-0.0415,-0.0415,0,-0.0457,-0.0475,-0.0616,-0.072,-0.0789,-0.0774,-0.072,-0.0644,-0.0514,-0.0516,-0.0499,-0.0432,-0.0426,-0.0403,-0.0398,-0.04,0,0,0,-0.0486,-0.053,-0.0632,-0.0746,-0.0832,-0.0758,-0.0702,-0.0661,-0.054,-0.0478,-0.0427,-0.0424,-0.0382,-0.0313,-0.0265,-0.026,-0.0251,0,0]}]]